Date,TemperatureHighF,TemperatureAvgF,TemperatureLowF,DewpointHighF,DewpointAvgF,DewpointLowF,HumidityHigh,HumidityAvg,HumidityLow,PressureMaxIn,PressureMinIn,WindSpeedMaxMPH,WindSpeedAvgMPH,GustSpeedMaxMPH,PrecipitationSumIn
2013-1-1,70,57,46,57,52,45,100,82,60,30.21,29.96,13,7,16,0.00
2013-1-2,64,57,50,61,55,50,100,93,77,30.17,29.90,13,8,20,0.00
2013-1-3,50,46,39,50,46,39,100,100,100,30.28,30.11,9,5,0,0.00
2013-1-4,54,41,30,43,36,30,100,85,43,30.36,30.26,8,2,0,0.00
2013-1-5,52,39,28,39,33,27,100,81,40,30.43,30.31,7,2,0,0.00
2013-1-6,54,48,39,48,46,39,100,93,76,30.31,30.12,8,2,0,0.00
2013-1-7,55,46,37,46,39,30,100,79,40,30.40,30.17,15,7,25,0.00
2013-1-8,66,52,41,54,46,37,100,82,63,30.42,30.34,9,5,0,0.00
2013-1-9,70,59,46,61,56,46,100,91,64,30.41,30.34,8,3,0,0.00
2013-1-10,68,58,52,63,54,48,100,85,59,30.47,30.39,15,7,22,0.00
2013-1-11,73,60,54,70,59,52,100,97,78,30.39,30.20,12,3,18,0.00
2013-1-12,81,66,55,70,62,55,100,89,50,30.22,30.14,8,4,0,0.00
2013-1-13,77,63,54,68,59,54,100,90,57,30.20,30.12,14,4,16,0.00
2013-1-14,79,66,54,68,62,54,100,88,57,30.21,30.13,13,6,21,0.00
2013-1-15,77,67,54,68,62,54,100,88,61,30.19,30.06,12,5,0,0.00
2013-1-16,79,69,61,66,64,61,100,86,57,30.08,29.98,18,9,24,0.00
2013-1-17,77,64,46,64,60,41,100,86,61,30.03,29.77,20,10,32,0.00
2013-1-18,55,45,36,41,33,27,100,68,32,30.51,30.03,22,10,31,0.00
2013-1-19,59,45,34,46,38,30,100,78,50,30.50,30.25,9,5,0,0.00
2013-1-20,68,50,37,48,41,32,100,76,26,30.25,30.04,16,5,22,0.00
2013-1-23,46,38,28,30,25,16,100,62,39,30.39,30.27,10,5,0,0.00
2013-1-24,61,55,48,45,44,43,81,66,51,30.16,30.10,15,13,30,0.00
2013-1-27,45,39,36,37,36,34,93,87,75,30.55,30.39,10,7,17,0.00
2013-1-28,59,53,43,54,49,37,87,84,81,30.46,30.33,7,5,0,0.00
2013-1-29,77,68,54,63,60,54,100,76,61,30.20,30.15,12,9,16,0.00
2013-2-3,45,45,45,36,36,36,70,70,70,29.97,29.97,3,3,0,0.00
2013-2-6,46,46,46,46,46,46,100,100,100,30.13,30.13,0,0,0,0.00
2013-2-8,54,52,52,52,50,48,100,91,87,30.06,30.01,7,6,0,0.00
2013-2-9,61,46,34,50,34,25,100,66,26,30.37,30.06,16,6,21,0.00
2013-2-10,61,46,30,52,42,30,100,87,55,30.44,30.23,14,4,18,0.00
2013-2-11,66,61,52,66,61,52,100,100,100,30.26,30.05,16,8,24,0.00
2013-2-12,63,57,48,61,54,45,100,92,55,30.15,29.94,10,5,0,0.00
2013-2-13,70,56,46,66,54,46,100,93,72,29.94,29.70,18,8,30,0.00
2013-2-14,54,48,39,52,42,36,100,80,53,30.10,29.85,10,4,16,0.00
2013-2-15,57,45,30,45,39,30,100,83,44,30.12,29.99,12,3,0,0.00
2013-2-16,54,40,34,46,39,34,100,95,61,30.02,29.82,23,7,37,0.00
2013-2-17,45,34,25,34,23,14,100,68,28,30.32,30.01,20,9,31,0.00
2013-2-18,54,38,21,36,27,21,100,70,34,30.45,30.30,13,4,16,0.00
2013-2-19,66,49,32,57,47,32,100,93,52,30.30,29.98,20,7,27,0.00
2013-2-20,57,47,36,48,36,25,100,70,34,30.17,30.04,12,5,0,0.00
2013-2-21,55,44,32,43,36,30,100,78,37,30.22,30.11,12,4,0,0.00
2013-2-22,52,49,43,52,47,41,100,93,76,30.25,30.07,21,8,27,0.00
2013-2-23,54,47,43,54,47,43,100,100,100,30.08,29.78,12,4,0,0.00
2013-2-24,66,53,43,54,48,43,100,87,42,30.02,29.77,12,6,20,0.00
2013-2-25,46,44,41,45,42,37,100,94,75,30.09,29.99,18,6,24,0.00
2013-2-26,72,61,45,70,59,45,100,95,82,30.03,29.61,30,13,36,0.00
2013-2-27,61,52,46,57,44,37,100,74,51,29.90,29.70,18,9,24,0.00
2013-2-28,59,50,37,43,38,34,93,67,38,29.90,29.78,22,10,29,0.00
2013-3-1,54,45,37,39,35,30,100,68,43,29.95,29.86,14,6,20,0.00
2013-3-2,52,41,30,39,35,30,100,79,43,29.94,29.84,15,6,21,0.00
2013-3-3,50,40,30,37,29,25,100,69,39,30.01,29.90,16,8,23,0.00
2013-3-4,54,40,28,36,26,19,93,61,25,30.18,30.01,15,7,22,0.00
2013-3-5,66,53,36,57,43,34,100,74,36,30.14,29.70,22,9,32,0.00
2013-3-6,59,49,41,57,32,25,100,54,34,30.07,29.66,25,16,36,0.00
2013-3-7,59,44,30,37,32,28,93,65,38,30.23,30.07,16,6,22,0.00
2013-3-8,59,45,34,36,30,27,93,58,30,30.29,30.17,16,7,25,0.00
2013-3-9,63,48,36,43,35,28,100,65,36,30.33,30.25,14,6,18,0.00
2013-3-10,64,48,34,46,38,28,100,75,29,30.32,30.24,12,4,16,0.00
2013-3-11,72,58,39,61,52,39,100,83,53,30.25,29.95,17,6,28,0.00
2013-3-12,72,64,54,64,61,48,100,88,71,29.95,29.81,23,10,29,0.00
2013-3-13,64,55,43,48,36,28,93,55,27,30.13,29.94,23,9,28,0.00
2013-3-14,55,44,34,34,25,19,86,50,30,30.31,30.10,15,8,22,0.00
2013-3-15,64,47,28,46,35,28,100,66,36,30.24,30.05,13,6,18,0.00
2013-3-16,81,64,55,52,48,45,76,58,28,30.05,29.85,21,13,27,0.00
2013-3-17,79,64,54,57,51,46,87,63,41,30.06,29.94,16,10,22,0.00
2013-3-18,61,57,54,61,54,48,100,93,63,30.12,29.87,12,6,0,0.00
2013-3-19,73,60,46,64,51,41,100,76,33,30.01,29.83,15,8,30,0.00
2013-3-20,61,52,36,45,32,21,100,51,24,30.13,29.85,15,6,18,0.00
2013-3-21,55,45,34,36,29,23,100,56,30,29.95,29.78,15,8,24,0.00
2013-3-22,52,42,34,39,26,19,81,54,34,30.11,29.95,14,6,18,0.00
2013-3-23,50,44,37,48,42,36,100,93,57,30.07,29.92,12,4,16,0.00
2013-3-24,63,52,45,63,52,45,100,99,87,29.93,29.46,28,11,41,0.00
2013-3-25,55,48,43,46,36,27,100,65,37,29.94,29.59,30,15,41,0.00
2013-3-26,54,43,34,30,28,27,74,55,37,30.17,29.94,17,9,27,0.00
2013-3-27,57,44,32,36,30,27,93,64,33,30.27,30.17,15,6,23,0.00
2013-3-28,59,45,32,34,29,27,93,58,30,30.31,30.19,13,6,25,0.00
2013-3-29,61,46,30,41,34,28,100,68,38,30.37,30.24,13,5,17,0.00
2013-3-30,70,55,46,52,47,41,100,78,43,30.27,30.10,13,4,16,0.00
2013-3-31,73,64,48,61,54,-100,100,76,56,30.12,29.91,17,11,29,0.00
2013-4-1,75,64,54,63,59,54,100,84,50,29.95,29.86,15,7,23,0.00
2013-4-2,61,55,48,54,45,39,100,70,44,30.16,29.94,14,7,18,0.00
2013-4-3,63,54,45,54,45,37,100,76,39,30.26,30.09,14,7,18,0.00
2013-4-4,59,54,52,59,51,41,100,88,62,30.27,29.84,21,11,30,0.00
2013-4-5,57,49,43,54,47,43,100,94,71,30.04,29.86,10,6,17,0.00
2013-8-8,84,79,73,79,76,73,100,90,83,30.06,30.04,7,4,0,0.00
2013-8-9,90,79,75,81,78,75,100,96,62,30.12,30.05,9,4,0,0.00
2013-8-10,91,82,73,81,76,73,100,85,59,30.15,30.08,12,5,17,0.01
2013-8-12,81,79,77,79,78,77,100,99,94,30.11,30.07,7,5,0,0.00
2013-8-13,81,40,81,79,-10,-100,94,75,56,29.97,29.92,9,8,21,0.00
2013-8-14,81,61,81,81,35,-100,100,72,88,29.95,29.88,7,6,0,0.00
2013-8-15,64,32,64,64,-18,-100,100,67,100,30.09,30.02,8,7,0,0.01
2013-8-16,70,35,70,70,-15,-100,100,97,94,30.08,30.06,12,9,16,0.00
2013-8-18,73,73,73,73,73,73,100,100,100,30.19,30.19,0,0,0,0.00
2013-8-19,-200,0,200,-100,-100,-100,100,15,94,30.11,30.09,9,2,0,1.67
2013-8-20,-200,0,200,-100,-100,-100,0,0,100,30.15,30.15,0,0,0,0.00
2013-8-24,82,82,82,72,72,72,69,69,69,30.18,30.18,7,7,0,0.00
2013-8-31,88,43,75,81,-8,-100,100,43,66,29.99,29.92,9,4,0,0.00
2013-9-1,90,68,73,81,45,-100,100,70,59,29.97,29.87,14,6,18,0.00
2013-9-2,91,82,73,81,77,73,100,84,59,29.95,29.85,14,8,23,0.00
2013-9-3,91,79,72,79,74,72,100,85,55,29.97,29.85,13,6,20,0.00
2013-9-4,75,72,70,73,72,70,100,100,94,30.02,29.96,3,0,0,0.00
2013-9-5,90,42,75,79,-12,-100,100,40,59,30.10,30.03,8,2,0,0.00
2013-9-6,88,56,68,73,22,-100,100,56,45,30.11,30.04,13,3,0,0.00
2013-9-7,84,61,66,73,36,-100,100,67,61,30.10,30.00,9,5,0,0.00
2013-9-8,90,72,64,72,61,-100,100,78,52,30.01,29.92,10,3,10,0.00
2013-9-9,88,77,66,75,71,66,100,84,58,30.15,29.99,13,4,16,0.00
2013-9-10,88,69,70,75,51,-100,100,72,48,30.23,30.14,13,4,17,0.00
2013-9-11,88,45,70,77,-3,-100,100,45,51,30.21,30.11,12,4,17,0.00
2013-9-12,90,47,70,75,3,-100,100,48,46,30.11,29.90,10,2,0,0.00
2013-9-13,90,80,73,75,73,70,100,82,52,29.90,29.76,10,5,0,0.00
2013-9-14,81,75,68,75,68,63,100,77,65,30.08,29.81,12,8,16,0.00
2013-9-15,82,59,66,75,36,-100,100,71,74,30.15,30.08,14,6,16,0.00
2013-9-16,88,39,72,75,-14,-100,100,42,58,30.15,30.04,8,1,0,0.00
2013-9-17,81,74,68,73,65,57,100,76,44,30.24,30.10,15,10,22,0.00